QPF
0.00 0.00 0.00 0.00 0.00 0.00 0.00 0.00 0.00 0.00 0.00 0.00 0.00 0.00 0.00 0.00 0.01 0.00 0.00 0.00 0.00 0.00 0.00 0.00 0.00 0.01 0.00 0.00 0.00 0.00 0.00 0.00 0.00 0.00 0.00 0.00 0.01 0.00 0.01 0.00 0.01 0.00 0.00
0.00 0.00 0.00 0.00 0.00 0.00 0.00 0.00 0.00 0.00 0.00 0.00 0.01 0.00 0.00 0.00 0.00 0.00 0.00 0.00 0.05 0.03 0.01 0.01 0.01 0.01 0.00 0.00 0.00 0.00 0.00 0.00 0.00 0.00 0.00 0.01 0.02 0.02 0.00 0.00 0.01 0.00 0.00
0.00 0.00 0.00 0.00 0.00 0.00 0.00 0.00 0.00 0.00 0.00 0.00 0.00 0.00 0.00 0.01 0.01 0.00 0.00 0.00 0.00 0.01 0.02 0.01 0.00 0.00 0.00 0.00 0.00 0.00 0.00 0.00 0.00 0.00 0.01 0.01 0.01 0.01 0.00 0.00 0.00 0.00 0.01
0.00 0.00 0.00 0.00 0.00 0.00 0.00 0.00 0.00 0.00 0.00 0.00 0.00 0.00 0.02 0.04 0.01 0.00 0.00 0.00 0.00 0.00 0.00 0.01 0.00 0.00 0.00 0.00 0.00 0.00 0.00 0.00 0.00 0.00 0.00 0.05 0.03 0.01 0.00 0.00 0.00 0.00 0.00
0.00 0.00 0.00 0.00 0.00 0.00 0.00 0.00 0.00 0.00 0.00 0.00 0.01 0.04 0.02 0.01 0.00 0.00 0.00 0.00 0.00 0.00 0.00 0.00 0.00 0.00 0.00 0.00 0.00 0.00 0.00 0.00 0.00 0.00 0.01 0.02 0.00 0.00 0.00 0.00 0.00 0.00 0.00
0.00 0.00 0.00 0.00 0.00 0.00 0.00 0.00 0.00 0.00 0.00 0.02 0.03 0.01 0.00 0.00 0.00 0.00 0.00 0.00 0.00 0.00 0.00 0.00 0.00 0.00 0.00 0.00 0.00 0.00 0.00 0.00 0.00 0.00 0.00 0.00 0.00 0.00 0.00 0.00 0.00 0.00 0.00
0.00 0.01 0.00 0.00 0.00 0.00 0.00 0.00 0.00 0.00 0.04 0.03 0.00 0.00 0.00 0.00 0.00 0.00 0.00 0.00 0.00 0.00 0.00 0.00 0.00 0.00 0.00 0.00 0.00 0.00 0.00 0.00 0.00 0.00 0.01 0.00 0.00 0.00 0.00 0.00 0.00 0.00 0.00
0.00 0.05 0.11 0.03 0.01 0.01 0.00 0.00 0.00 0.01 0.05 0.03 0.00 0.00 0.00 0.00 0.00 0.00 0.00 0.00 0.00 0.00 0.00 0.00 0.00 0.00 0.00 0.00 0.00 0.00 0.00 0.00 0.00 0.00 0.00 0.00 0.00 0.00 0.00 0.00 0.01 0.01 0.00
0.00 0.01 0.12 0.26 0.10 0.01 0.03 0.02 0.00 0.02 0.02 0.00 0.00 0.00 0.00 0.00 0.00 0.00 0.00 0.00 0.00 0.00 0.00 0.00 0.00 0.00 0.00 0.00 0.00 0.00 0.00 0.00 0.00 0.00 0.00 0.00 0.00 0.00 0.00 0.02 0.01 0.02 0.01
0.00 0.00 0.00 0.10 0.21 0.09 0.01 0.03 0.01 0.00 0.00 0.00 0.00 0.00 0.00 0.00 0.00 0.00 0.00 0.00 0.00 0.00 0.00 0.00 0.00 0.00 0.00 0.00 0.00 0.00 0.00 0.00 0.00 0.00 0.00 0.00 0.00 0.01 0.05 0.04 0.01 0.01 0.00
0.00 0.00 0.00 0.06 0.14 0.19 0.10 0.05 0.02 0.00 0.00 0.00 0.00 0.00 0.00 0.00 0.00 0.00 0.00 0.00 0.00 0.00 0.00 0.00 0.00 0.00 0.00 0.00 0.00 0.00 0.00 0.00 0.00 0.00 0.00 0.01 0.05 0.07 0.04 0.01 0.00 0.00 0.00
0.00 0.00 0.00 0.01 0.05 0.14 0.14 0.07 0.03 0.01 0.00 0.00 0.00 0.00 0.00 0.00 0.00 0.00 0.00 0.00 0.00 0.00 0.00 0.00 0.00 0.00 0.00 0.00 0.00 0.00 0.00 0.00 0.00 0.00 0.00 0.03 0.04 0.02 0.00 0.00 0.00 0.00 0.00
0.00 0.00 0.00 0.02 0.07 0.09 0.11 0.08 0.06 0.02 0.00 0.00 0.00 0.00 0.00 0.00 0.00 0.00 0.00 0.00 0.00 0.00 0.00 0.00 0.00 0.00 0.00 0.00 0.00 0.00 0.00 0.00 0.00 0.00 0.00 0.02 0.01 0.00 0.00 0.00 0.00 0.00 0.00
0.00 0.00 0.00 0.00 0.04 0.14 0.12 0.15 0.07 0.03 0.02 0.00 0.00 0.00 0.00 0.00 0.00 0.00 0.00 0.00 0.00 0.00 0.00 0.00 0.00 0.00 0.00 0.00 0.00 0.00 0.00 0.00 0.00 0.00 0.00 0.00 0.00 0.00 0.00 0.00 0.00 0.00 0.00
0.00 0.00 0.00 0.00 0.00 0.06 0.14 0.17 0.13 0.12 0.07 0.02 0.01 0.00 0.00 0.00 0.00 0.00 0.00 0.00 0.00 0.00 0.00 0.00 0.00 0.00 0.00 0.00 0.00 0.00 0.00 0.00 0.00 0.00 0.00 0.00 0.00 0.00 0.00 0.00 0.00 0.00 0.00
0.00 0.00 0.00 0.00 0.00 0.00 0.06 0.34 0.31 0.13 0.10 0.06 0.02 0.00 0.00 0.00 0.00 0.00 0.00 0.00 0.00 0.00 0.00 0.00 0.00 0.00 0.00 0.00 0.00 0.00 0.00 0.00 0.00 0.00 0.00 0.00 0.00 0.00 0.00 0.00 0.00 0.00 0.00
0.00 0.00 0.00 0.00 0.00 0.00 0.00 0.10 0.55 0.55 0.19 0.09 0.07 0.02 0.00 0.00 0.00 0.00 0.00 0.00 0.00 0.00 0.00 0.00 0.00 0.00 0.00 0.00 0.00 0.00 0.00 0.00 0.00 0.00 0.00 0.00 0.00 0.00 0.00 0.00 0.00 0.00 0.00
0.00 0.00 0.00 0.00 0.00 0.00 0.00 0.00 0.04 0.46 0.46 0.15 0.06 0.01 0.00 0.00 0.00 0.00 0.00 0.00 0.00 0.00 0.00 0.00 0.00 0.00 0.00 0.00 0.00 0.00 0.00 0.00 0.00 0.00 0.00 0.00 0.00 0.00 0.00 0.00 0.00 0.00 0.00
0.00 0.00 0.00 0.00 0.00 0.00 0.00 0.00 0.01 0.17 0.33 0.27 0.08 0.02 0.00 0.00 0.00 0.00 0.00 0.00 0.00 0.00 0.00 0.00 0.00 0.00 0.00 0.00 0.00 0.00 0.00 0.00 0.00 0.00 0.00 0.00 0.00 0.00 0.00 0.00 0.00 0.00 0.00
0.00 0.00 0.00 0.00 0.00 0.00 0.00 0.00 0.00 0.04 0.22 0.28 0.27 0.14 0.02 0.00 0.00 0.00 0.00 0.00 0.00 0.00 0.00 0.00 0.00 0.00 0.00 0.00 0.00 0.00 0.00 0.00 0.00 0.00 0.00 0.00 0.00 0.00 0.00 0.00 0.00 0.00 0.00
0.00 0.00 0.00 0.00 0.00 0.00 0.00 0.00 0.00 0.00 0.04 0.21 0.26 0.20 0.13 0.02 0.00 0.00 0.00 0.00 0.00 0.00 0.00 0.00 0.00 0.00 0.00 0.00 0.00 0.00 0.00 0.00 0.00 0.00 0.00 0.00 0.00 0.00 0.00 0.00 0.00 0.00 0.00
0.00 0.00 0.00 0.00 0.00 0.00 0.00 0.00 0.00 0.00 0.01 0.09 0.23 0.19 0.09 0.04 0.00 0.00 0.00 0.00 0.00 0.00 0.00 0.00 0.00 0.00 0.00 0.00 0.00 0.00 0.00 0.00 0.00 0.00 0.00 0.00 0.00 0.00 0.00 0.00 0.00 0.00 0.00
0.00 0.00 0.00 0.00 0.00 0.00 0.00 0.00 0.00 0.01 0.02 0.03 0.09 0.20 0.22 0.04 0.00 0.00 0.00 0.00 0.00 0.00 0.00 0.00 0.00 0.00 0.00 0.00 0.00 0.00 0.00 0.00 0.00 0.00 0.00 0.00 0.00 0.00 0.00 0.00 0.00 0.00 0.00
0.00 0.00 0.00 0.00 0.00 0.00 0.00 0.00 0.00 0.00 0.01 0.01 0.03 0.13 0.16 0.13 0.02 0.00 0.00 0.00 0.00 0.00 0.00 0.00 0.00 0.00 0.00 0.00 0.00 0.00 0.00 0.00 0.00 0.00 0.00 0.00 0.00 0.00 0.00 0.00 0.00 0.00 0.00
0.00 0.00 0.00 0.00 0.00 0.00 0.01 0.01 0.00 0.00 0.00 0.00 0.06 0.06 0.09 0.05 0.01 0.00 0.00 0.00 0.00 0.00 0.00 0.00 0.00 0.00 0.00 0.00 0.00 0.00 0.00 0.00 0.00 0.00 0.00 0.00 0.00 0.00 0.00 0.00 0.00 0.00 0.00
0.00 0.00 0.00 0.00 0.00 0.00 0.00 0.00 0.00 0.00 0.00 0.01 0.05 0.11 0.04 0.02 0.00 0.00 0.00 0.00 0.00 0.00 0.00 0.00 0.00 0.00 0.00 0.00 0.00 0.00 0.00 0.00 0.00 0.00 0.00 0.00 0.00 0.00 0.00 0.00 0.00 0.00 0.00
MSLP
1012.34 1012.05 1012.38 1012.76 1013.04 1013.20 1013.50 1013.74 1013.91 1014.13 1014.33 1014.58 1014.86 1015.03 1015.23 1015.37 1015.55 1015.68 1015.76 1015.87 1015.96 1016.07 1016.20 1016.27 1016.35 1016.45 1016.57 1016.72 1016.84 1016.99 1017.10 1017.23 1017.35 1017.38 1017.41 1017.42 1017.39 1017.45 1017.50 1017.49 1017.51 1017.48 1017.49
1011.74 1012.07 1012.32 1012.64 1012.99 1013.31 1013.45 1013.82 1014.04 1014.23 1014.26 1014.44 1014.82 1015.11 1015.29 1015.45 1015.58 1015.73 1015.86 1016.00 1016.11 1016.25 1016.33 1016.48 1016.64 1016.71 1016.80 1016.99 1017.12 1017.21 1017.27 1017.40 1017.50 1017.59 1017.70 1017.72 1017.63 1017.55 1017.69 1017.74 1017.75 1017.65 1017.61
1012.09 1012.03 1012.35 1012.67 1013.01 1013.29 1013.54 1013.89 1014.15 1014.29 1014.49 1014.58 1014.81 1015.13 1015.36 1015.47 1015.66 1015.79 1015.96 1016.10 1016.27 1016.43 1016.59 1016.71 1016.84 1016.96 1017.10 1017.29 1017.35 1017.38 1017.35 1017.40 1017.61 1017.76 1017.83 1017.82 1017.77 1017.72 1017.86 1017.95 1017.86 1017.87 1017.82
1011.96 1012.13 1012.29 1012.58 1012.90 1013.23 1013.51 1013.81 1014.19 1014.37 1014.58 1014.85 1014.92 1015.03 1015.30 1015.55 1015.74 1015.92 1016.04 1016.18 1016.36 1016.59 1016.74 1016.97 1017.12 1017.30 1017.43 1017.51 1017.53 1017.52 1017.40 1017.36 1017.63 1017.65 1017.64 1017.72 1017.73 1017.93 1017.97 1018.04 1018.05 1018.10 1018.13
1011.72 1012.15 1012.26 1012.58 1012.93 1013.12 1013.30 1013.61 1013.95 1014.33 1014.52 1014.81 1014.99 1015.12 1015.40 1015.55 1015.83 1016.12 1016.28 1016.45 1016.53 1016.63 1016.98 1017.27 1017.39 1017.48 1017.62 1017.66 1017.64 1017.58 1017.40 1017.37 1017.63 1017.45 1017.45 1017.77 1017.85 1018.09 1018.22 1018.31 1018.33 1018.27 1018.27
1011.47 1011.83 1012.12 1012.47 1013.01 1013.31 1013.41 1013.52 1013.73 1014.12 1014.40 1014.67 1015.01 1015.21 1015.32 1015.74 1016.09 1016.38 1016.59 1016.78 1016.84 1016.98 1017.19 1017.38 1017.45 1017.54 1017.64 1017.69 1017.71 1017.66 1017.57 1017.54 1017.55 1017.50 1017.68 1017.77 1017.93 1018.11 1018.35 1018.43 1018.45 1018.46 1018.48
1012.19 1012.08 1011.87 1012.06 1012.67 1013.19 1013.37 1013.54 1013.70 1013.88 1014.24 1014.63 1014.91 1015.23 1015.61 1015.78 1016.16 1016.53 1016.82 1016.95 1016.99 1017.13 1017.27 1017.39 1017.53 1017.64 1017.71 1017.75 1017.77 1017.77 1017.75 1017.80 1017.62 1017.72 1017.76 1017.85 1017.99 1018.24 1018.43 1018.55 1018.63 1018.66 1018.66
1012.52 1012.13 1012.00 1011.91 1012.16 1012.73 1013.21 1013.42 1013.71 1013.90 1014.09 1014.48 1014.83 1015.20 1015.54 1015.99 1016.25 1016.52 1016.83 1017.02 1017.12 1017.21 1017.31 1017.41 1017.55 1017.66 1017.72 1017.77 1017.85 1017.91 1017.84 1017.87 1017.85 1017.97 1018.05 1018.08 1018.23 1018.39 1018.53 1018.69 1018.86 1018.80 1018.88
1012.50 1012.47 1012.25 1012.27 1012.19 1012.40 1012.81 1013.28 1013.54 1013.84 1014.08 1014.28 1014.74 1015.22 1015.48 1015.90 1016.39 1016.56 1016.75 1017.04 1017.22 1017.34 1017.41 1017.51 1017.57 1017.67 1017.75 1017.81 1017.87 1017.92 1017.90 1018.05 1018.24 1018.28 1018.32 1018.54 1018.42 1018.53 1018.68 1018.86 1019.13 1019.19 1019.27
1012.63 1012.52 1012.36 1012.34 1012.45 1012.68 1012.74 1013.09 1013.47 1013.77 1014.10 1014.28 1014.83 1015.19 1015.65 1015.87 1016.19 1016.68 1016.81 1017.01 1017.24 1017.41 1017.52 1017.59 1017.69 1017.77 1017.84 1017.84 1017.92 1018.06 1018.31 1018.45 1018.48 1018.62 1018.68 1018.61 1018.49 1018.60 1018.89 1019.05 1019.38 1019.57 1019.69
1012.49 1012.54 1012.33 1012.36 1012.57 1012.72 1012.87 1012.88 1013.38 1013.86 1014.04 1014.19 1015.04 1015.26 1015.55 1016.05 1016.28 1016.60 1017.04 1017.02 1017.22 1017.39 1017.58 1017.68 1017.79 1017.91 1017.93 1017.95 1018.03 1018.13 1018.36 1018.65 1018.72 1018.88 1018.82 1018.57 1018.66 1018.95 1019.16 1019.40 1019.64 1019.90 1020.02
1012.69 1012.56 1012.50 1012.35 1012.09 1012.53 1012.72 1013.02 1013.34 1013.78 1014.12 1014.11 1014.91 1015.26 1015.60 1015.99 1016.39 1016.62 1016.97 1017.09 1017.20 1017.37 1017.54 1017.69 1017.87 1018.02 1018.12 1018.24 1018.37 1018.43 1018.73 1018.84 1019.00 1019.17 1019.03 1018.90 1018.93 1019.14 1019.49 1019.78 1019.98 1020.21 1020.37
1012.53 1012.51 1012.41 1012.29 1012.27 1012.09 1012.50 1013.01 1013.32 1013.75 1014.02 1014.24 1014.64 1015.07 1015.49 1016.06 1016.44 1016.79 1017.07 1017.26 1017.36 1017.48 1017.63 1017.78 1018.09 1018.34 1018.38 1018.51 1018.56 1018.71 1018.97 1019.12 1019.45 1019.44 1019.40 1019.23 1019.27 1019.54 1019.62 1020.20 1020.36 1020.49 1020.63
1012.40 1012.22 1012.07 1012.15 1012.15 1012.05 1011.97 1012.55 1012.90 1013.41 1013.67 1014.10 1014.49 1014.82 1015.19 1015.88 1016.51 1016.92 1017.12 1017.49 1017.52 1017.66 1017.83 1017.96 1018.37 1018.54 1018.54 1018.64 1018.62 1018.87 1019.23 1019.59 1019.79 1019.82 1019.83 1019.72 1019.72 1019.75 1020.04 1020.59 1020.70 1020.78 1020.87
1012.22 1012.06 1011.90 1011.96 1011.90 1011.92 1012.16 1012.32 1012.54 1012.83 1013.11 1013.63 1014.09 1014.50 1014.75 1015.28 1016.18 1016.70 1017.02 1017.26 1017.60 1017.61 1017.89 1018.12 1018.25 1018.51 1018.58 1018.68 1018.88 1019.02 1019.51 1019.90 1020.14 1020.27 1020.32 1020.33 1020.15 1020.28 1020.59 1020.83 1020.98 1021.07 1021.17
1011.44 1011.48 1011.29 1011.56 1011.62 1011.56 1011.90 1012.56 1011.38 1012.66 1013.13 1013.32 1013.95 1014.20 1014.36 1014.48 1015.45 1016.24 1016.85 1017.05 1017.37 1017.44 1017.61 1017.89 1018.14 1018.42 1018.77 1019.02 1019.29 1019.34 1019.74 1020.10 1020.37 1020.57 1020.72 1020.85 1020.70 1020.86 1021.04 1021.21 1021.35 1021.41 1021.44
1010.72 1010.73 1010.90 1011.00 1011.17 1011.37 1011.54 1011.79 1012.36 1013.09 1013.25 1013.53 1014.38 1014.44 1014.06 1014.05 1014.94 1015.81 1016.47 1016.98 1016.90 1017.15 1017.33 1017.74 1018.19 1018.52 1019.03 1019.26 1019.75 1019.77 1019.88 1020.26 1020.66 1020.89 1021.09 1021.23 1021.34 1021.38 1021.46 1021.53 1021.64 1021.71 1021.71
1009.93 1010.17 1010.13 1010.33 1010.80 1011.33 1011.62 1011.94 1012.40 1012.76 1013.78 1013.01 1014.17 1014.77 1014.72 1014.60 1014.65 1015.62 1016.43 1016.88 1016.92 1017.17 1017.37 1017.85 1018.41 1018.89 1019.33 1019.61 1020.04 1020.30 1020.39 1020.44 1020.82 1021.16 1021.36 1021.54 1021.73 1021.84 1021.80 1021.87 1021.97 1022.02 1022.01
1009.09 1009.38 1009.67 1009.98 1010.45 1011.02 1011.60 1012.14 1012.52 1013.09 1013.67 1014.10 1014.20 1013.85 1015.05 1015.08 1015.32 1015.56 1016.34 1016.78 1017.05 1017.22 1017.46 1017.96 1018.66 1018.99 1019.64 1020.07 1020.39 1020.66 1020.81 1020.98 1020.97 1021.21 1021.59 1021.77 1021.83 1022.02 1022.24 1022.15 1022.20 1022.31 1022.36
1008.37 1008.56 1008.86 1009.50 1010.19 1010.68 1011.49 1012.25 1012.68 1013.23 1013.77 1014.10 1014.48 1014.78 1015.12 1015.16 1015.68 1016.06 1016.52 1016.85 1017.21 1017.65 1017.83 1018.18 1018.80 1019.25 1019.75 1020.10 1020.48 1021.00 1021.24 1021.28 1021.40 1021.61 1021.68 1021.78 1021.97 1022.10 1022.29 1022.46 1022.59 1022.56 1022.48
1008.37 1008.60 1008.76 1009.35 1009.96 1010.48 1011.50 1012.13 1012.73 1013.20 1013.91 1014.12 1014.60 1014.07 1015.52 1016.00 1016.00 1016.28 1016.80 1016.95 1017.34 1017.91 1018.01 1018.27 1019.03 1019.45 1020.28 1020.41 1020.95 1021.55 1021.68 1021.85 1021.95 1022.01 1022.00 1022.09 1022.22 1022.21 1022.23 1022.50 1022.62 1022.82 1022.89
1008.33 1008.21 1008.49 1008.87 1009.40 1009.81 1010.72 1011.27 1011.95 1012.71 1013.77 1014.54 1015.03 1014.48 1014.33 1016.71 1016.28 1016.46 1017.09 1017.43 1017.43 1018.01 1018.23 1018.54 1018.86 1019.75 1020.28 1020.62 1021.13 1021.83 1022.37 1022.55 1022.48 1022.34 1022.18 1022.34 1022.39 1022.58 1022.60 1022.65 1022.70 1022.95 1023.15
1008.35 1008.40 1008.20 1008.40 1008.93 1009.45 1010.46 1011.15 1011.86 1012.80 1013.68 1014.48 1014.86 1015.14 1014.56 1015.07 1016.48 1016.97 1017.38 1017.64 1017.82 1017.97 1018.35 1018.69 1018.91 1019.26 1020.13 1020.70 1020.54 1020.89 1022.03 1022.31 1022.75 1022.81 1022.54 1022.50 1022.65 1023.00 1023.18 1023.14 1023.01 1023.02 1023.33
1007.23 1007.19 1007.41 1007.82 1008.19 1008.88 1009.82 1010.58 1011.07 1011.80 1013.05 1013.89 1014.67 1015.02 1015.62 1014.05 1016.76 1017.45 1017.75 1017.96 1017.91 1017.96 1018.56 1018.88 1018.96 1018.94 1019.54 1020.43 1020.63 1020.67 1020.62 1020.83 1022.11 1023.28 1023.14 1022.96 1022.99 1023.06 1023.26 1023.54 1023.78 1023.44 1023.49
1006.04 1006.13 1006.32 1006.19 1007.04 1007.87 1009.04 1009.79 1010.72 1011.51 1012.53 1013.47 1014.32 1015.64 1015.15 1016.83 1016.34 1017.96 1018.43 1018.04 1017.93 1018.12 1018.66 1018.99 1018.99 1019.08 1019.56 1020.23 1020.40 1021.00 1021.10 1021.24 1021.54 1022.34 1023.53 1023.52 1023.61 1023.41 1023.36 1023.70 1024.05 1024.27 1024.15
1004.79 1004.81 1005.06 1005.63 1005.95 1006.90 1008.18 1009.20 1009.94 1011.11 1012.10 1013.25 1014.29 1015.28 1015.53 1017.04 1015.78 1017.74 1018.04 1018.29 1018.22 1018.26 1018.73 1019.03 1018.98 1019.36 1020.03 1020.35 1020.68 1021.16 1021.38 1021.73 1022.23 1022.50 1023.57 1023.94 1024.17 1023.98 1023.79 1024.05 1024.76 1024.97 1024.62
Thickness
5761 5764 5761 5757 5755 5753 5750 5748 5746 5744 5743 5742 5740 5738 5736 5735 5734 5732 5731 5729 5728 5727 5726 5725 5725 5724 5723 5722 5722 5721 5719 5718 5716 5715 5714 5713 5713 5711 5709 5709 5708 5707 5706
5764 5761 5759 5757 5754 5751 5749 5747 5745 5743 5742 5742 5739 5737 5735 5734 5733 5731 5730 5728 5727 5725 5724 5723 5722 5721 5721 5719 5718 5718 5717 5715 5714 5713 5711 5710 5710 5710 5707 5706 5705 5705 5704
5757 5758 5756 5754 5752 5750 5748 5745 5744 5742 5740 5739 5738 5736 5735 5733 5731 5730 5728 5727 5726 5724 5722 5721 5720 5719 5718 5717 5716 5716 5716 5715 5712 5710 5709 5708 5708 5707 5705 5703 5703 5702 5701
5753 5754 5753 5752 5750 5748 5746 5744 5742 5741 5739 5736 5736 5735 5734 5732 5730 5729 5727 5726 5724 5722 5721 5719 5718 5717 5716 5715 5715 5715 5716 5716 5712 5711 5710 5708 5707 5704 5702 5701 5700 5699 5697
5752 5749 5749 5748 5746 5746 5745 5744 5742 5740 5738 5735 5734 5733 5732 5731 5729 5726 5725 5724 5722 5721 5719 5716 5716 5715 5714 5714 5714 5714 5715 5715 5712 5711 5710 5706 5705 5701 5699 5697 5696 5695 5694
5750 5746 5745 5744 5741 5740 5740 5741 5741 5739 5737 5735 5732 5731 5730 5727 5725 5723 5722 5721 5720 5718 5716 5715 5714 5714 5713 5713 5713 5713 5713 5712 5711 5710 5707 5705 5703 5699 5696 5695 5693 5692 5690
5735 5739 5740 5741 5737 5735 5736 5736 5736 5736 5735 5733 5730 5728 5726 5725 5722 5720 5718 5718 5718 5717 5715 5713 5712 5712 5712 5711 5711 5711 5710 5710 5710 5707 5705 5703 5700 5696 5694 5692 5690 5688 5686
5722 5731 5733 5734 5734 5732 5731 5732 5731 5731 5732 5731 5729 5726 5724 5721 5720 5718 5716 5715 5715 5714 5713 5712 5711 5711 5711 5711 5710 5709 5709 5708 5706 5704 5701 5699 5696 5693 5691 5688 5685 5684 5682
5715 5718 5724 5723 5726 5727 5727 5726 5727 5726 5726 5727 5725 5723 5722 5719 5716 5715 5714 5712 5711 5710 5710 5710 5709 5709 5709 5709 5708 5707 5706 5704 5702 5700 5697 5694 5692 5690 5687 5684 5680 5678 5676
5704 5708 5712 5715 5716 5717 5719 5719 5719 5720 5720 5721 5718 5718 5717 5716 5714 5710 5711 5709 5708 5707 5707 5707 5706 5706 5706 5706 5706 5704 5702 5701 5699 5696 5693 5691 5689 5686 5682 5680 5676 5672 5670
5695 5697 5702 5704 5707 5707 5709 5713 5712 5712 5714 5716 5711 5712 5712 5711 5710 5708 5706 5706 5705 5704 5704 5703 5703 5702 5703 5703 5702 5702 5699 5697 5696 5693 5690 5688 5685 5680 5677 5674 5671 5668 5665
5682 5685 5689 5693 5699 5699 5699 5702 5703 5703 5704 5709 5706 5706 5707 5705 5704 5704 5702 5702 5702 5701 5701 5700 5699 5699 5699 5699 5698 5698 5694 5693 5690 5687 5685 5683 5680 5677 5673 5669 5666 5663 5660
5673 5674 5677 5682 5685 5690 5690 5689 5694 5694 5696 5699 5700 5701 5701 5698 5696 5698 5697 5696 5697 5697 5697 5696 5695 5694 5694 5694 5693 5693 5690 5689 5685 5682 5679 5677 5675 5671 5669 5663 5660 5657 5655
5657 5663 5667 5670 5674 5679 5683 5682 5684 5686 5688 5690 5691 5694 5695 5691 5690 5690 5691 5690 5691 5692 5692 5692 5690 5689 5689 5688 5689 5688 5684 5682 5679 5677 5674 5672 5669 5667 5663 5657 5654 5652 5649
5646 5649 5652 5656 5661 5666 5670 5672 5674 5679 5681 5682 5683 5687 5690 5689 5685 5684 5684 5686 5684 5686 5686 5686 5686 5684 5684 5684 5683 5682 5679 5675 5674 5671 5668 5664 5663 5660 5656 5652 5649 5647 5644
5636 5637 5642 5644 5647 5653 5657 5659 5664 5666 5669 5672 5671 5676 5682 5685 5682 5679 5678 5680 5681 5681 5682 5681 5681 5680 5678 5676 5675 5675 5673 5668 5668 5665 5662 5658 5656 5653 5649 5646 5643 5641 5638
5623 5625 5628 5630 5633 5637 5642 5647 5648 5654 5655 5660 5655 5659 5670 5676 5676 5673 5673 5673 5677 5677 5678 5677 5675 5674 5671 5669 5667 5666 5666 5663 5660 5658 5655 5652 5649 5646 5643 5640 5638 5635 5633
5611 5612 5615 5619 5619 5620 5624 5627 5630 5634 5636 5649 5639 5643 5650 5658 5667 5665 5663 5665 5669 5670 5671 5670 5668 5666 5663 5662 5659 5657 5656 5656 5653 5650 5648 5645 5642 5640 5637 5634 5631 5628 5626
5603 5604 5605 5606 5608 5608 5607 5606 5610 5612 5618 5623 5627 5636 5637 5644 5650 5655 5653 5655 5658 5662 5664 5664 5660 5659 5655 5653 5652 5649 5648 5647 5647 5644 5640 5638 5636 5634 5630 5628 5625 5622 5618
5597 5598 5599 5599 5597 5598 5594 5589 5591 5594 5599 5607 5613 5620 5618 5633 5637 5640 5640 5644 5648 5650 5653 5655 5652 5650 5648 5647 5646 5641 5639 5639 5638 5636 5635 5632 5629 5626 5624 5621 5618 5616 5612
5583 5584 5586 5587 5587 5587 5583 5580 5576 5579 5580 5591 5600 5615 5612 5608 5619 5628 5628 5634 5638 5639 5644 5646 5643 5643 5638 5638 5636 5631 5630 5628 5628 5628 5626 5625 5622 5620 5618 5614 5611 5608 5604
5572 5574 5575 5579 5579 5580 5576 5574 5571 5568 5566 5572 5582 5598 5612 5599 5598 5614 5618 5621 5628 5629 5634 5636 5638 5634 5632 5630 5628 5623 5618 5618 5618 5619 5619 5617 5615 5612 5610 5607 5605 5601 5596
5563 5562 5566 5570 5570 5569 5563 5562 5560 5555 5554 5558 5570 5581 5594 5599 5592 5598 5604 5609 5615 5621 5624 5626 5630 5631 5626 5623 5626 5624 5612 5612 5607 5608 5610 5609 5607 5602 5599 5597 5595 5592 5587
5562 5560 5559 5561 5561 5559 5555 5554 5557 5554 5548 5552 5557 5565 5574 5598 5579 5579 5587 5594 5604 5612 5614 5617 5622 5626 5623 5619 5619 5620 5620 5619 5607 5598 5598 5598 5596 5595 5589 5584 5581 5581 5577
5554 5552 5554 5559 5555 5553 5548 5546 5545 5547 5546 5545 5548 5549 5564 5561 5571 5564 5567 5582 5594 5602 5605 5608 5614 5617 5616 5613 5613 5610 5610 5607 5604 5598 5589 5587 5584 5583 5580 5575 5569 5565 5562
5548 5546 5548 5549 5552 5548 5542 5538 5540 5539 5539 5538 5539 5542 5553 5550 5570 5559 5565 5574 5582 5592 5597 5600 5607 5607 5605 5605 5604 5602 5601 5598 5593 5590 5579 5576 5571 5572 5568 5563 5555 5550 5549